Wind_Speed
16 17 17 17 18 18 18 19 19 19 19 20 21 22 23 23 23 25 26 26 27 28 28 29 30 30 32 33 34 34 35 36 36 36 36 36 36 37
16 16 16 17 17 18 18 19 19 20 20 21 22 22 23 24 24 25 25 26 27 28 29 30 30 31 31 31 32 34 35 35 35 36 37 37 36 36
16 17 17 17 17 18 18 19 20 20 20 21 22 22 23 24 24 25 25 26 26 27 27 28 29 30 31 31 32 33 33 34 35 36 37 37 36 36
16 16 17 17 18 19 18 19 19 20 20 21 22 22 22 23 24 24 24 25 25 26 26 27 28 30 31 32 32 32 33 34 35 36 37 38 38 37
15 16 16 17 17 18 18 18 19 19 20 21 21 21 22 22 23 23 23 24 25 26 27 27 28 30 31 32 33 33 34 35 36 37 38 39 39 40
15 16 17 17 17 18 18 19 19 20 20 21 21 21 21 21 22 23 24 24 25 26 27 28 28 30 30 32 33 34 35 37 37 38 39 39 40 40
15 16 16 17 17 17 18 19 19 20 20 20 20 21 21 21 22 23 24 25 25 25 25 26 27 28 30 31 32 33 35 37 38 39 39 40 41 41
16 16 16 16 16 17 17 18 19 20 20 20 21 21 21 21 21 21 23 23 24 25 25 25 26 26 27 29 30 32 33 35 37 39 39 40 41 42
17 16 16 16 17 18 18 19 19 20 21 21 22 21 21 21 21 21 22 23 24 25 26 25 26 26 27 28 29 31 32 34 35 37 39 39 40 41
16 16 16 17 18 18 19 19 20 20 21 21 22 21 21 21 21 22 22 23 23 24 25 25 26 26 26 27 28 29 30 32 33 34 35 38 40 40
17 16 17 17 18 18 18 19 20 21 21 21 22 21 21 22 22 22 22 22 22 23 24 24 24 25 25 25 26 28 29 30 31 32 34 36 38 39
17 17 17 18 18 18 19 19 20 21 21 21 21 21 21 21 22 22 22 23 23 22 23 23 24 24 24 24 25 26 27 29 30 31 31 32 35 37
18 18 18 18 18 19 19 20 21 21 21 20 20 20 21 22 22 22 22 23 22 22 23 23 24 24 24 24 24 25 26 28 29 30 30 31 32 35
18 18 19 19 19 19 20 20 21 21 20 20 20 21 21 22 22 22 23 22 22 22 22 23 23 24 25 25 25 25 25 26 28 29 30 30 31 32
17 18 18 19 20 20 20 21 22 21 20 20 21 21 22 22 22 22 22 22 22 22 22 23 23 24 24 25 25 25 25 25 26 28 29 30 31 32
16 18 18 18 19 20 21 21 21 20 20 21 21 21 21 21 21 21 21 21 22 22 23 23 23 23 23 23 24 24 24 24 25 26 28 29 29 30
16 17 18 18 19 20 20 20 20 20 20 20 21 21 21 21 21 21 22 22 22 22 22 23 23 23 23 23 23 24 24 24 24 25 26 27 28 30
16 17 17 17 18 19 18 18 19 19 19 20 20 21 21 21 21 21 21 22 22 22 22 22 22 22 23 23 23 22 22 23 24 24 25 25 27 28
16 16 17 18 18 19 18 18 19 19 19 19 20 20 20 20 20 21 21 21 21 22 22 22 23 22 22 22 21 22 22 22 23 23 24 25 25 26
15 16 16 17 18 18 18 19 19 19 19 19 20 20 20 20 21 21 21 21 21 21 22 22 22 23 23 23 22 21 21 22 22 22 23 24 24 24
15 16 16 17 17 17 18 18 18 19 20 20 20 20 21 21 21 21 21 21 21 21 21 21 22 22 23 23 22 21 21 22 22 22 23 23 23 24
16 16 16 17 17 17 18 18 19 19 20 21 21 21 21 21 22 21 21 22 22 22 22 22 22 23 23 23 23 22 22 22 22 22 22 22 22 22
16 17 17 17 18 19 19 20 20 20 21 22 22 22 22 22 22 22 22 22 22 22 22 22 22 22 22 21 21 21 21 21 21 21 21 21 22 22
Wind_Direction
276 275 276 278 276 275 275 274 274 273 273 273 274 272 270 268 266 265 264 262 262 263 262 261 260 260 259 258 254 253 250 248 246 246 245 245 244 242
278 277 278 279 279 277 277 277 276 276 276 275 275 273 272 270 268 266 264 264 263 263 264 263 262 261 261 259 254 252 250 247 245 244 244 244 244 243
280 278 278 280 280 281 280 280 279 280 279 279 278 276 274 272 269 267 266 266 264 265 265 265 263 262 261 258 254 253 251 249 247 245 245 244 242 243
280 278 278 281 283 283 283 283 283 282 280 280 280 277 276 273 270 268 268 267 266 266 266 265 265 264 262 260 255 253 251 250 249 247 245 244 242 242
282 281 281 281 285 285 285 285 284 282 282 284 283 280 278 275 272 269 269 269 269 268 267 267 267 265 263 261 258 255 252 251 250 248 246 245 244 244
287 284 283 283 284 286 287 287 286 285 286 286 284 282 280 277 274 271 270 270 271 271 270 269 269 267 265 261 259 257 254 252 251 250 248 246 245 245
292 289 287 286 285 286 287 287 286 286 287 287 284 282 281 280 278 274 273 274 274 272 273 272 270 268 265 263 262 260 257 254 252 251 250 248 246 245
292 290 288 287 286 287 288 289 287 287 287 288 286 285 284 282 280 278 277 277 275 273 274 275 273 271 268 265 263 262 259 256 254 252 251 249 248 247
296 292 290 289 289 289 289 291 292 289 288 288 288 288 286 284 282 281 280 279 278 276 276 275 274 273 272 269 267 265 261 257 255 254 253 251 250 248
296 295 294 293 292 291 291 293 294 294 292 290 290 290 288 286 285 283 282 282 281 279 278 276 274 274 274 272 269 267 264 259 256 254 253 252 250 248
297 295 295 295 294 294 295 296 295 295 294 292 289 288 288 288 286 284 283 283 282 280 280 277 276 276 275 273 272 270 265 260 257 255 253 252 250 249
296 298 300 301 301 299 299 298 297 296 296 293 292 289 289 288 286 285 286 287 286 283 281 280 279 278 277 275 273 270 265 261 259 256 254 252 251 249
295 297 299 302 303 303 303 302 301 300 299 297 296 294 294 293 290 289 289 289 288 286 284 283 282 280 279 278 276 272 267 264 260 257 255 253 252 251
292 295 297 300 301 302 303 304 304 304 301 300 299 298 297 296 295 294 292 291 290 289 287 285 284 283 281 281 278 275 270 266 263 259 256 255 253 252
292 294 297 300 301 301 302 302 301 302 301 299 299 298 298 298 297 294 292 291 291 291 290 288 287 286 284 282 280 276 273 269 265 261 256 255 256 255
293 295 297 300 301 303 304 304 302 301 301 300 301 301 300 300 298 295 292 292 291 290 290 290 289 288 288 286 283 278 277 274 268 263 259 256 255 255
297 301 301 303 305 307 309 309 308 306 304 304 304 304 301 298 297 295 293 293 292 291 291 291 291 289 288 287 284 280 277 275 273 269 264 259 257 257
298 301 304 306 307 309 309 310 310 309 308 307 306 304 302 299 297 295 295 294 294 294 293 293 292 290 289 287 285 282 279 278 276 273 270 264 261 259
299 304 306 307 308 308 308 311 311 310 310 309 307 305 304 303 301 299 299 298 297 297 297 297 296 293 292 292 289 285 281 279 277 274 271 267 265 263
301 304 306 308 312 313 314 315 314 314 314 314 313 311 310 308 306 303 302 301 300 299 299 299 299 295 292 292 290 286 283 280 278 275 273 270 267 264
300 304 306 308 311 314 315 315 313 313 314 316 316 314 312 310 307 305 304 303 302 301 301 301 299 298 294 290 288 287 284 281 278 275 274 272 269 265
299 303 306 308 311 314 315 315 315 314 315 315 315 314 311 310 308 306 305 303 302 301 301 301 301 301 298 293 290 288 286 281 277 276 274 272 269 267
298 302 305 308 310 313 315 315 316 315 314 313 314 314 312 311 310 308 306 303 303 302 302 302 302 302 301 298 294 290 287 283 279 277 274 271 270 268
Height
5761 5761 5760 5760 5759 5759 5758 5757 5757 5756 5756 5755 5754 5753 5752 5752 5752 5752 5752 5752 5752 5753 5753 5753 5753 5754 5755 5756 5757 5758 5760 5762 5764 5767 5769 5772 5775 5778
5756 5756 5755 5754 5754 5753 5752 5751 5750 5750 5749 5748 5747 5746 5745 5745 5744 5744 5744 5744 5744 5744 5744 5744 5745 5745 5745 5746 5747 5748 5750 5752 5754 5757 5760 5763 5766 5769
5751 5751 5750 5749 5748 5747 5746 5745 5744 5743 5742 5741 5740 5739 5738 5737 5736 5736 5735 5735 5735 5735 5735 5735 5735 5735 5735 5736 5737 5739 5740 5742 5745 5747 5750 5753 5756 5759
5746 5745 5745 5744 5743 5742 5741 5740 5738 5737 5736 5734 5733 5732 5730 5729 5728 5728 5727 5727 5727 5726 5726 5726 5726 5726 5726 5727 5727 5729 5731 5733 5735 5737 5740 5743 5746 5749
5741 5740 5740 5739 5738 5736 5735 5734 5732 5731 5729 5728 5726 5724 5723 5722 5721 5720 5720 5719 5719 5718 5718 5718 5717 5717 5717 5717 5718 5719 5721 5723 5725 5727 5729 5732 5735 5739
5736 5735 5734 5733 5732 5731 5729 5728 5726 5724 5723 5721 5719 5718 5716 5715 5714 5713 5712 5711 5711 5710 5709 5709 5708 5708 5708 5708 5708 5709 5710 5712 5714 5716 5718 5721 5724 5728
5732 5730 5729 5727 5726 5725 5723 5721 5720 5718 5716 5714 5713 5711 5709 5707 5706 5705 5704 5704 5703 5702 5701 5700 5700 5699 5698 5698 5698 5698 5699 5700 5702 5704 5707 5710 5713 5716
5727 5725 5724 5722 5720 5719 5717 5716 5714 5712 5710 5708 5706 5704 5702 5700 5699 5697 5697 5696 5695 5694 5693 5692 5691 5690 5689 5688 5688 5688 5688 5689 5690 5692 5695 5698 5701 5704
5722 5720 5719 5717 5715 5714 5712 5710 5707 5705 5703 5701 5699 5697 5695 5693 5692 5690 5689 5688 5687 5686 5684 5684 5683 5681 5680 5679 5678 5677 5677 5678 5679 5680 5683 5685 5688 5692
5717 5715 5713 5712 5710 5708 5706 5703 5701 5699 5696 5694 5693 5690 5688 5686 5684 5683 5681 5680 5679 5677 5676 5675 5674 5673 5671 5670 5668 5667 5667 5667 5668 5669 5671 5673 5676 5679
5712 5710 5708 5706 5704 5702 5700 5697 5695 5692 5689 5687 5685 5683 5681 5679 5677 5675 5674 5672 5671 5669 5668 5667 5665 5664 5663 5661 5659 5658 5657 5657 5658 5659 5660 5662 5664 5667
5707 5705 5703 5701 5698 5696 5694 5691 5689 5686 5683 5681 5678 5676 5674 5672 5670 5668 5666 5664 5663 5662 5660 5658 5657 5655 5654 5653 5651 5649 5648 5648 5648 5649 5650 5651 5653 5655
5702 5700 5698 5695 5693 5690 5688 5685 5682 5680 5677 5674 5672 5670 5667 5665 5662 5660 5658 5656 5655 5654 5652 5650 5649 5647 5645 5644 5642 5641 5640 5639 5640 5640 5641 5642 5643 5645
5697 5695 5692 5690 5687 5685 5682 5679 5676 5673 5671 5668 5666 5663 5660 5658 5655 5652 5650 5649 5647 5645 5644 5642 5640 5638 5637 5635 5634 5632 5631 5630 5630 5631 5632 5632 5633 5635
5692 5690 5687 5685 5682 5679 5676 5673 5670 5667 5664 5662 5659 5657 5654 5651 5648 5646 5644 5641 5639 5638 5636 5634 5632 5630 5628 5627 5625 5624 5623 5622 5621 5621 5622 5623 5624 5625
5687 5685 5682 5680 5677 5674 5671 5667 5664 5661 5658 5655 5653 5650 5647 5644 5642 5639 5637 5635 5633 5631 5628 5626 5624 5622 5621 5619 5617 5616 5614 5613 5613 5612 5612 5613 5614 5616
5682 5680 5677 5675 5672 5669 5665 5662 5658 5655 5652 5649 5646 5643 5641 5638 5635 5632 5630 5628 5625 5623 5621 5619 5616 5614 5613 5611 5609 5607 5606 5605 5604 5603 5603 5604 5605 5606
5677 5675 5673 5670 5667 5664 5660 5657 5653 5650 5647 5643 5640 5637 5634 5631 5628 5626 5623 5621 5618 5615 5613 5611 5609 5607 5605 5603 5601 5599 5598 5597 5596 5595 5594 5595 5596 5596
5673 5670 5668 5665 5662 5659 5655 5652 5648 5645 5641 5638 5635 5631 5628 5625 5622 5619 5616 5613 5611 5608 5606 5604 5601 5599 5597 5595 5594 5591 5590 5589 5588 5587 5587 5587 5587 5587
5668 5666 5664 5661 5658 5654 5651 5647 5643 5640 5636 5633 5629 5626 5622 5619 5616 5613 5610 5607 5604 5602 5599 5597 5594 5592 5590 5588 5587 5585 5582 5581 5580 5580 5579 5578 5579 5579
5664 5662 5659 5656 5653 5650 5646 5643 5639 5635 5632 5628 5624 5620 5617 5613 5610 5607 5604 5600 5598 5595 5592 5590 5587 5584 5582 5580 5579 5577 5575 5573 5572 5572 5571 5571 5571 5571
5659 5657 5655 5652 5649 5645 5642 5638 5635 5631 5627 5623 5619 5615 5612 5608 5604 5601 5597 5594 5591 5588 5586 5583 5580 5577 5575 5573 5571 5570 5568 5566 5565 5564 5563 5563 5563 5563
5654 5652 5650 5647 5644 5640 5637 5634 5630 5626 5622 5618 5614 5610 5606 5602 5598 5594 5591 5588 5585 5582 5579 5576 5574 5571 5568 5565 5564 5562 5561 5559 5558 5557 5556 5555 5555 5555